VOE1817 LEMD-LIMJ

Flight info

Callsign VOE1817
Flight time N/A
Altitude 34000
Route PINAR DCT SEGRE DCT YAKXU DCT RONNY/N0455F280 DCT TOPTU DCT TOU DCT GAI DCT MEN DCT NINUN DCT LATAM DCT ROMAM/N0450F350 DCT ETIDO DCT NEDRU DCT RILIP DCT EMMEF DCT LAPRI/N0453F340 DCT MOGBO/N0452F350 DCT TOP DCT TESTO
Aircraft A320/M-SDE3FGHIRWY/LB1

Departure

Time N/A
Airport Adolfo Suárez Madrid–Barajas Airport (LEMD)

Arrival

Time 2026-04-21 19:55
Airport Genoa Cristoforo Colombo Airport (LIMJ)
Time Latitude Longitude Altitude Speed Heading
2026-04-21 18:35 42.14579 -1.16066 33832 ft 479 kts 37°
2026-04-21 18:36 42.19720 -1.10351 33857 ft 478 kts 37°
2026-04-21 18:36 42.24850 -1.04658 33873 ft 477 kts 37°
2026-04-21 18:37 42.29967 -0.98965 33876 ft 476 kts 37°
2026-04-21 18:37 42.34215 -0.94224 33829 ft 478 kts 37°
2026-04-21 18:38 42.39356 -0.88471 33833 ft 480 kts 37°
2026-04-21 18:38 42.44206 -0.82221 33839 ft 485 kts 50°
2026-04-21 18:39 42.48334 -0.74956 33870 ft 487 kts 51°
2026-04-21 18:39 42.52468 -0.67675 33870 ft 487 kts 50°
2026-04-21 18:40 42.56605 -0.60392 33895 ft 488 kts 50°
2026-04-21 18:40 42.60716 -0.53127 33895 ft 488 kts 51°
2026-04-21 18:41 42.64849 -0.45787 33924 ft 489 kts 51°
2026-04-21 18:41 42.68981 -0.38435 33923 ft 489 kts 51°
2026-04-21 18:42 42.73087 -0.31128 33912 ft 489 kts 51°
2026-04-21 18:42 42.77208 -0.23766 33923 ft 489 kts 51°
2026-04-21 18:43 42.81340 -0.16398 33906 ft 488 kts 50°
2026-04-21 18:43 42.85642 -0.09225 33912 ft 488 kts 48°
2026-04-21 18:44 42.90012 -0.02136 33873 ft 488 kts 48°
2026-04-21 18:44 42.94344 0.05009 33900 ft 489 kts 48°
2026-04-21 18:45 42.98640 0.12222 33911 ft 489 kts 49°
2026-04-21 18:45 43.02929 0.19447 33903 ft 489 kts 48°
2026-04-21 18:46 43.07226 0.26673 33899 ft 490 kts 48°
2026-04-21 18:46 43.11519 0.33910 33877 ft 490 kts 48°
2026-04-21 18:47 43.15779 0.41110 33875 ft 490 kts 48°
2026-04-21 18:47 43.20067 0.48364 33859 ft 490 kts 48°
2026-04-21 18:48 43.24347 0.55631 33868 ft 489 kts 48°
2026-04-21 18:48 43.28610 0.62889 33862 ft 488 kts 48°
2026-04-21 18:49 43.32870 0.70167 33856 ft 488 kts 48°
2026-04-21 18:49 43.36399 0.76211 33859 ft 488 kts 48°
2026-04-21 18:50 43.41356 0.84712 33868 ft 487 kts 48°
2026-04-21 18:50 43.45586 0.91990 33880 ft 487 kts 48°
2026-04-21 18:51 43.49808 0.99273 33870 ft 486 kts 48°
2026-04-21 18:51 43.54030 1.06555 33862 ft 486 kts 48°
2026-04-21 18:52 43.58250 1.13853 33850 ft 486 kts 48°
2026-04-21 18:52 43.62449 1.21144 33869 ft 486 kts 48°
2026-04-21 18:53 43.66619 1.28422 33876 ft 486 kts 48°
2026-04-21 18:53 43.70771 1.35800 33871 ft 487 kts 50°
2026-04-21 18:54 43.74785 1.43355 33866 ft 488 kts 51°
2026-04-21 18:54 43.78756 1.50954 33864 ft 488 kts 50°
2026-04-21 18:55 43.82083 1.57264 33881 ft 487 kts 50°
2026-04-21 18:55 43.86777 1.66085 33879 ft 486 kts 50°
2026-04-21 18:56 43.90788 1.73638 33884 ft 486 kts 50°
2026-04-21 18:56 43.94768 1.81172 33883 ft 486 kts 50°
2026-04-21 18:57 43.98700 1.88813 33893 ft 486 kts 51°
2026-04-21 18:57 44.02522 1.96578 33908 ft 487 kts 52°
2026-04-21 18:58 44.06336 2.04351 33905 ft 487 kts 51°
2026-04-21 18:58 44.10172 2.12109 33891 ft 487 kts 51°
2026-04-21 18:59 44.14002 2.19828 33900 ft 487 kts 51°
2026-04-21 18:59 44.17843 2.27583 33901 ft 487 kts 51°
2026-04-21 19:00 44.21672 2.35368 33930 ft 487 kts 51°
2026-04-21 19:00 44.25495 2.43183 33924 ft 487 kts 51°
2026-04-21 19:01 44.29323 2.51009 33931 ft 488 kts 51°
2026-04-21 19:01 44.33153 2.58839 33919 ft 488 kts 51°
2026-04-21 19:02 44.36972 2.66677 33928 ft 488 kts 51°
2026-04-21 19:02 44.40788 2.74555 33954 ft 489 kts 51°
2026-04-21 19:03 44.44573 2.82380 33967 ft 489 kts 51°
2026-04-21 19:03 44.48382 2.90270 33961 ft 489 kts 51°
2026-04-21 19:04 44.52178 2.98154 33963 ft 489 kts 51°
2026-04-21 19:04 44.55980 3.06072 33963 ft 489 kts 51°
2026-04-21 19:05 44.59775 3.14002 33994 ft 489 kts 51°
2026-04-21 19:05 44.63385 3.22053 33988 ft 492 kts 55°
2026-04-21 19:06 44.66705 3.30478 33989 ft 493 kts 57°
2026-04-21 19:06 44.69958 3.38972 33989 ft 493 kts 56°
2026-04-21 19:07 44.73286 3.47431 33989 ft 492 kts 56°
2026-04-21 19:07 44.76650 3.55820 33989 ft 492 kts 56°
2026-04-21 19:08 44.79991 3.64163 34003 ft 492 kts 56°
2026-04-21 19:08 44.83334 3.72588 34001 ft 493 kts 56°
2026-04-21 19:09 44.86669 3.81078 34014 ft 493 kts 56°
2026-04-21 19:09 44.89986 3.89549 34005 ft 493 kts 56°
2026-04-21 19:10 44.93289 3.97974 34036 ft 494 kts 56°
2026-04-21 19:10 44.96605 4.06449 34030 ft 493 kts 56°
2026-04-21 19:11 44.99920 4.14961 34021 ft 493 kts 56°
2026-04-21 19:11 45.02874 4.23740 34029 ft 501 kts 68°
2026-04-21 19:12 45.04018 4.31820 34017 ft 509 kts 80°
2026-04-21 19:12 45.04904 4.43445 34010 ft 509 kts 80°
2026-04-21 19:13 45.05672 4.53411 34005 ft 509 kts 80°
2026-04-21 19:13 45.06427 4.63355 34016 ft 509 kts 80°
2026-04-21 19:14 45.07167 4.73346 34013 ft 510 kts 80°
2026-04-21 19:14 45.07889 4.83257 33998 ft 510 kts 80°
2026-04-21 19:15 45.08619 4.93239 34017 ft 510 kts 79°
2026-04-21 19:15 45.09342 5.03249 34026 ft 511 kts 79°
2026-04-21 19:16 45.10047 5.13258 34010 ft 511 kts 80°
2026-04-21 19:16 45.09956 5.23377 34011 ft 517 kts 90°
2026-04-21 19:17 45.09272 5.38540 34021 ft 517 kts 90°
2026-04-21 19:17 45.08749 5.48703 33992 ft 518 kts 90°
2026-04-21 19:18 45.08169 5.58890 33983 ft 519 kts 91°
2026-04-21 19:18 45.07584 5.69012 33977 ft 519 kts 91°
2026-04-21 19:19 45.07006 5.79202 34001 ft 520 kts 90°
2026-04-21 19:19 45.06421 5.89416 33985 ft 521 kts 91°
2026-04-21 19:20 45.05830 5.99628 33808 ft 520 kts 90°
2026-04-21 19:20 45.05535 6.04685 33535 ft 521 kts 90°
2026-04-21 19:20 45.05232 6.09805 33261 ft 522 kts 91°
2026-04-21 19:21 45.04926 6.14920 33022 ft 522 kts 90°
2026-04-21 19:21 45.04618 6.20039 32965 ft 523 kts 91°
2026-04-21 19:21 45.03993 6.30309 32970 ft 524 kts 91°
2026-04-21 19:22 45.03364 6.40541 32967 ft 525 kts 91°
2026-04-21 19:22 45.02721 6.50830 32962 ft 524 kts 91°
2026-04-21 19:23 45.02059 6.61117 32950 ft 524 kts 91°
2026-04-21 19:23 45.01379 6.71415 32951 ft 525 kts 91°
2026-04-21 19:24 45.00760 6.79958 32948 ft 526 kts 92°
2026-04-21 19:24 44.99975 6.90269 32964 ft 526 kts 92°
2026-04-21 19:25 44.99193 7.00541 32958 ft 526 kts 92°
2026-04-21 19:25 44.98420 7.10749 32951 ft 525 kts 91°
2026-04-21 19:26 44.98058 7.21013 32956 ft 521 kts 84°
2026-04-21 19:26 44.98131 7.31243 32963 ft 522 kts 84°
2026-04-21 19:27 44.98021 7.41517 32957 ft 521 kts 92°
2026-04-21 19:27 44.97472 7.46496 32919 ft 505 kts 96°
2026-04-21 19:27 44.96865 7.51299 32760 ft 485 kts 96°
2026-04-21 19:28 44.96286 7.55904 32581 ft 469 kts 96°
2026-04-21 19:28 44.95739 7.60328 32393 ft 459 kts 95°
2026-04-21 19:28 44.95199 7.64737 32152 ft 451 kts 95°
2026-04-21 19:28 44.94671 7.69073 31883 ft 443 kts 95°
2026-04-21 19:29 44.94151 7.73313 31625 ft 436 kts 95°
2026-04-21 19:29 44.93629 7.77504 31360 ft 431 kts 95°
2026-04-21 19:29 44.93104 7.81671 30952 ft 429 kts 97°
2026-04-21 19:29 44.92328 7.85734 30521 ft 432 kts 107°
2026-04-21 19:30 44.91131 7.89636 30057 ft 433 kts 117°
2026-04-21 19:30 44.89645 7.93332 29548 ft 432 kts 118°
2026-04-21 19:30 44.88151 7.97007 29028 ft 431 kts 118°
2026-04-21 19:30 44.86667 8.00676 28540 ft 429 kts 118°
2026-04-21 19:31 44.85201 8.04314 28130 ft 426 kts 118°
2026-04-21 19:31 44.83749 8.07914 27834 ft 419 kts 118°
2026-04-21 19:31 44.82317 8.11450 27543 ft 412 kts 119°
2026-04-21 19:31 44.80919 8.14892 27238 ft 406 kts 119°
2026-04-21 19:32 44.79526 8.18312 26963 ft 400 kts 119°
2026-04-21 19:32 44.78151 8.21682 26679 ft 394 kts 119°
2026-04-21 19:32 44.76793 8.25009 26397 ft 390 kts 119°
2026-04-21 19:32 44.75448 8.28305 26120 ft 387 kts 119°
2026-04-21 19:33 44.74110 8.31582 25842 ft 385 kts 119°
2026-04-21 19:33 44.72770 8.34857 25568 ft 383 kts 119°
2026-04-21 19:33 44.71441 8.38100 25211 ft 383 kts 120°
2026-04-21 19:33 44.70113 8.41339 24800 ft 383 kts 120°
2026-04-21 19:34 44.68781 8.44585 24387 ft 382 kts 119°
2026-04-21 19:34 44.67457 8.47807 23978 ft 381 kts 120°
2026-04-21 19:34 44.66145 8.50999 23593 ft 380 kts 120°
2026-04-21 19:34 44.64821 8.54211 23134 ft 380 kts 120°
2026-04-21 19:35 44.63500 8.57407 22654 ft 380 kts 120°
2026-04-21 19:35 44.60864 8.63779 21723 ft 368 kts 120°
2026-04-21 19:35 44.59596 8.66850 21226 ft 360 kts 120°
2026-04-21 19:36 44.58350 8.69875 20787 ft 355 kts 120°
2026-04-21 19:36 44.57120 8.72856 20304 ft 352 kts 120°
2026-04-21 19:36 44.55895 8.75822 19767 ft 350 kts 120°
2026-04-21 19:36 44.54677 8.78770 19234 ft 348 kts 120°
2026-04-21 19:37 44.53474 8.81681 18712 ft 345 kts 120°
2026-04-21 19:37 44.52270 8.84591 18172 ft 342 kts 120°
2026-04-21 19:37 44.51093 8.87434 17649 ft 341 kts 120°
2026-04-21 19:37 44.49907 8.90300 17116 ft 337 kts 120°
2026-04-21 19:38 44.48736 8.93121 16596 ft 333 kts 120°
2026-04-21 19:38 44.47575 8.95908 16082 ft 330 kts 121°
2026-04-21 19:38 44.46182 8.98412 15573 ft 323 kts 142°
2026-04-21 19:38 44.44325 9.00082 15077 ft 313 kts 163°
2026-04-21 19:39 44.42280 9.00995 14593 ft 305 kts 169°
2026-04-21 19:39 44.40270 9.01816 14117 ft 303 kts 169°
2026-04-21 19:39 44.38256 9.02630 13631 ft 301 kts 168°
2026-04-21 19:39 44.36241 9.03445 13094 ft 298 kts 168°
2026-04-21 19:40 44.34256 9.04246 12572 ft 295 kts 168°
2026-04-21 19:40 44.32300 9.05037 12152 ft 288 kts 167°
2026-04-21 19:40 44.30396 9.05811 11732 ft 282 kts 167°
2026-04-21 19:40 44.28608 9.06826 11329 ft 280 kts 152°
2026-04-21 19:41 44.27035 9.08399 10912 ft 276 kts 144°
2026-04-21 19:41 44.25525 9.10012 10500 ft 271 kts 144°
2026-04-21 19:41 44.24020 9.11612 10142 ft 272 kts 144°
2026-04-21 19:41 44.22516 9.13206 9794 ft 272 kts 144°
2026-04-21 19:42 44.21026 9.14786 9416 ft 264 kts 144°
2026-04-21 19:42 44.19578 9.16320 9061 ft 260 kts 144°
2026-04-21 19:42 44.18162 9.17818 8950 ft 253 kts 144°
2026-04-21 19:42 44.16774 9.19285 8957 ft 253 kts 144°
2026-04-21 19:43 44.15368 9.20770 8956 ft 253 kts 144°
2026-04-21 19:43 44.13962 9.22253 8958 ft 254 kts 144°
2026-04-21 19:43 44.12559 9.23733 8958 ft 254 kts 144°
2026-04-21 19:43 44.11166 9.25244 8957 ft 254 kts 137°
2026-04-21 19:44 44.10250 9.27313 8958 ft 253 kts 102°
2026-04-21 19:44 44.10293 9.29680 8949 ft 241 kts 68°
2026-04-21 19:44 44.11128 9.31642 8822 ft 235 kts 49°
2026-04-21 19:44 44.12127 9.33445 8691 ft 234 kts 49°
2026-04-21 19:45 44.13121 9.35244 8541 ft 234 kts 49°
2026-04-21 19:45 44.14326 9.36681 8321 ft 226 kts 20°
2026-04-21 19:45 44.15813 9.37036 8099 ft 218 kts 349°
2026-04-21 19:45 44.17204 9.36300 7894 ft 215 kts 322°
2026-04-21 19:46 44.18402 9.35038 7687 ft 216 kts 321°
2026-04-21 19:46 44.19596 9.33776 7475 ft 214 kts 321°
2026-04-21 19:46 44.20762 9.32545 7297 ft 205 kts 322°
2026-04-21 19:46 44.21879 9.31369 7070 ft 197 kts 322°
2026-04-21 19:47 44.22961 9.30225 6896 ft 193 kts 322°
2026-04-21 19:47 44.24034 9.29090 6728 ft 193 kts 322°
2026-04-21 19:47 44.25108 9.27955 6554 ft 194 kts 322°
2026-04-21 19:47 44.26179 9.26823 6277 ft 193 kts 322°
2026-04-21 19:48 44.27245 9.25693 5857 ft 194 kts 322°
2026-04-21 19:48 44.28317 9.24558 5432 ft 193 kts 322°
2026-04-21 19:48 44.29383 9.23428 5061 ft 191 kts 322°
2026-04-21 19:48 44.30413 9.22335 5018 ft 183 kts 322°
2026-04-21 19:49 44.31432 9.21257 5020 ft 183 kts 322°
2026-04-21 19:49 44.32447 9.20185 5018 ft 183 kts 322°
2026-04-21 19:49 44.33368 9.18967 5019 ft 183 kts 307°
2026-04-21 19:49 44.33975 9.17401 4849 ft 184 kts 291°
2026-04-21 19:50 44.34269 9.16294 4685 ft 183 kts 289°
2026-04-21 19:50 44.34796 9.14023 4340 ft 183 kts 287°
2026-04-21 19:50 44.35166 9.12346 4090 ft 182 kts 287°
2026-04-21 19:50 44.35536 9.10655 3828 ft 182 kts 287°
2026-04-21 19:51 44.35903 9.08965 3570 ft 181 kts 287°
2026-04-21 19:51 44.36268 9.07287 3322 ft 180 kts 287°
2026-04-21 19:51 44.36630 9.05618 3068 ft 179 kts 287°
2026-04-21 19:51 44.36989 9.03958 2800 ft 177 kts 287°
2026-04-21 19:52 44.37346 9.02309 2569 ft 177 kts 287°
2026-04-21 19:52 44.37701 9.00670 2325 ft 177 kts 287°
2026-04-21 19:52 44.38052 8.99045 2069 ft 176 kts 287°
2026-04-21 19:52 44.38405 8.97413 1820 ft 175 kts 287°
2026-04-21 19:53 44.38749 8.95819 1596 ft 163 kts 287°
2026-04-21 19:53 44.39063 8.94364 1354 ft 150 kts 287°
2026-04-21 19:53 44.39356 8.93005 1149 ft 144 kts 287°
2026-04-21 19:53 44.39651 8.91681 948 ft 141 kts 289°
2026-04-21 19:54 44.39963 8.90384 731 ft 141 kts 285°
2026-04-21 19:54 44.40229 8.89067 535 ft 141 kts 285°
2026-04-21 19:54 44.40492 8.87751 362 ft 141 kts 285°
2026-04-21 19:54 44.40751 8.86433 190 ft 141 kts 283°
2026-04-21 19:55 44.41012 8.85121 36 ft 138 kts 284°
2026-04-21 19:55 44.41234 8.83973 20 ft 100 kts 286°
2026-04-21 19:55 44.41376 8.83262 22 ft 47 kts 286°
2026-04-21 19:55 44.41475 8.83094 21 ft 16 kts 343°
2026-04-21 19:56 44.41548 8.83138 20 ft 11 kts 79°
2026-04-21 19:56 44.41537 8.83222 20 ft 7 kts 105°
2026-04-21 19:56 44.41525 8.83281 22 ft 6 kts 105°
2026-04-21 19:56 44.41516 8.83331 20 ft 5 kts 105°
2026-04-21 19:57 44.41508 8.83372 21 ft 5 kts 105°
2026-04-21 19:57 44.41494 8.83442 20 ft 10 kts 105°
2026-04-21 19:57 44.41470 8.83566 21 ft 16 kts 105°
2026-04-21 19:57 44.41436 8.83739 20 ft 20 kts 106°
2026-04-21 19:58 44.41396 8.83941 21 ft 23 kts 105°
2026-04-21 19:58 44.41352 8.84167 21 ft 25 kts 105°
2026-04-21 19:58 44.41335 8.84258 20 ft 0 kts 105°
2026-04-21 19:59 44.41330 8.84280 20 ft 6 kts 105°
2026-04-21 19:59 44.41313 8.84367 21 ft 13 kts 100°
2026-04-21 19:59 44.41366 8.84498 20 ft 19 kts 52°
2026-04-21 19:59 44.41448 8.84648 20 ft 15 kts 52°
2026-04-21 20:00 44.41504 8.84752 22 ft 13 kts 52°
2026-04-21 20:00 44.41556 8.84845 20 ft 11 kts 52°
2026-04-21 20:00 44.41603 8.84924 20 ft 10 kts 48°
2026-04-21 20:00 44.41644 8.84993 20 ft 8 kts 69°
2026-04-21 20:01 44.41619 8.85015 20 ft 5 kts 192°
2026-04-21 20:01 44.41601 8.85008 20 ft 0 kts 196°
2026-04-21 20:01 44.41598 8.85007 20 ft 2 kts 194°
2026-04-21 20:01 44.41596 8.85006 20 ft 0 kts 194°